Time,TemperatureF,DewpointF,PressureIn,WindDirection,WindDirectionDegrees,WindSpeedMPH,WindSpeedGustMPH,Humidity,HourlyPrecipIn,Conditions,Clouds,dailyrainin,SolarRadiationWatts/m^2,SoftwareType,DateUTC
2013-03-15 00:03:00,45.0,21.0,-100.00,SW,234,0.0,3.0,38,0.00,,,0.00,0.000000,,2013-03-15 04:03:00,
2013-03-15 00:12:00,41.0,23.0,-100.00,NNE,23,0.0,2.0,48,0.00,,,0.00,0.000000,,2013-03-15 04:12:00,
2013-03-15 00:33:00,41.0,23.0,-100.00,NNE,23,0.0,2.0,48,0.00,,,0.00,0.000000,,2013-03-15 04:33:00,
2013-03-15 00:43:00,41.0,23.0,-100.00,NNE,23,0.0,2.0,48,0.00,,,0.00,0.000000,,2013-03-15 04:43:00,
2013-03-15 00:53:00,41.0,23.0,-100.00,NNE,23,0.0,2.0,48,0.00,,,0.00,0.000000,,2013-03-15 04:53:00,
2013-03-15 01:02:00,41.0,23.0,-100.00,NNE,23,0.0,2.0,48,0.00,,,0.00,0.000000,,2013-03-15 05:02:00,
2013-03-15 01:12:00,41.0,21.0,-100.00,North,357,0.0,0.0,45,0.00,,,0.00,0.000000,,2013-03-15 05:12:00,
2013-03-15 01:32:00,41.0,21.0,-100.00,North,357,0.0,0.0,45,0.00,,,0.00,0.000000,,2013-03-15 05:32:00,
2013-03-15 01:42:00,41.0,21.0,-100.00,North,357,0.0,0.0,45,0.00,,,0.00,0.000000,,2013-03-15 05:42:00,
2013-03-15 01:52:00,41.0,21.0,-100.00,North,357,0.0,0.0,45,0.00,,,0.00,0.000000,,2013-03-15 05:52:00,
2013-03-15 02:02:00,41.0,21.0,-100.00,North,357,0.0,0.0,45,0.00,,,0.00,0.000000,,2013-03-15 06:02:00,
2013-03-15 02:12:00,40.0,21.0,-100.00,NNW,331,0.0,0.0,46,0.00,,,0.00,0.000000,,2013-03-15 06:12:00,
2013-03-15 02:33:00,40.0,21.0,-100.00,NNW,331,0.0,0.0,46,0.00,,,0.00,0.000000,,2013-03-15 06:33:00,
2013-03-15 02:42:00,40.0,21.0,-100.00,NNW,331,0.0,0.0,46,0.00,,,0.00,0.000000,,2013-03-15 06:42:00,
2013-03-15 02:53:00,40.0,21.0,-100.00,NNW,331,0.0,0.0,46,0.00,,,0.00,0.000000,,2013-03-15 06:53:00,
2013-03-15 03:02:00,40.0,21.0,-100.00,NNW,331,0.0,0.0,46,0.00,,,0.00,0.000000,,2013-03-15 07:02:00,
2013-03-15 03:12:00,39.0,21.0,-100.00,NW,313,0.0,2.0,48,0.00,,,0.00,0.000000,,2013-03-15 07:12:00,
2013-03-15 03:32:00,39.0,21.0,-100.00,NW,313,0.0,2.0,48,0.00,,,0.00,0.000000,,2013-03-15 07:32:00,
2013-03-15 03:42:00,39.0,21.0,-100.00,NW,313,0.0,2.0,48,0.00,,,0.00,0.000000,,2013-03-15 07:42:00,
2013-03-15 03:52:00,39.0,21.0,-100.00,NW,313,0.0,2.0,48,0.00,,,0.00,0.000000,,2013-03-15 07:52:00,
2013-03-15 04:02:00,39.0,21.0,-100.00,NW,313,0.0,2.0,48,0.00,,,0.00,0.000000,,2013-03-15 08:02:00,
2013-03-15 04:12:00,35.0,21.0,-100.00,NNE,29,0.0,1.0,56,0.00,,,0.00,0.000000,,2013-03-15 08:12:00,
2013-03-15 04:42:00,35.0,21.0,-100.00,NNE,29,0.0,1.0,56,0.00,,,0.00,0.000000,,2013-03-15 08:42:00,
2013-03-15 04:53:00,35.0,21.0,-100.00,NNE,29,0.0,1.0,56,0.00,,,0.00,0.000000,,2013-03-15 08:53:00,
2013-03-15 05:02:00,35.0,21.0,-100.00,NNE,29,0.0,1.0,56,0.00,,,0.00,0.000000,,2013-03-15 09:02:00,
2013-03-15 05:12:00,34.0,20.0,-100.00,East,88,0.0,2.0,57,0.00,,,0.00,0.000000,,2013-03-15 09:12:00,
2013-03-15 05:33:00,34.0,20.0,-100.00,East,88,0.0,2.0,57,0.00,,,0.00,0.000000,,2013-03-15 09:33:00,
2013-03-15 05:43:00,34.0,20.0,-100.00,East,88,0.0,2.0,57,0.00,,,0.00,0.000000,,2013-03-15 09:43:00,
2013-03-15 05:53:00,34.0,20.0,-100.00,East,88,0.0,2.0,57,0.00,,,0.00,0.000000,,2013-03-15 09:53:00,
2013-03-15 06:03:00,34.0,20.0,-100.00,East,88,0.0,2.0,57,0.00,,,0.00,0.000000,,2013-03-15 10:03:00,
2013-03-15 06:12:00,34.0,20.0,-100.00,South,183,0.0,0.0,56,0.00,,,0.00,0.000000,,2013-03-15 10:12:00,
2013-03-15 06:33:00,34.0,20.0,-100.00,South,183,0.0,0.0,56,0.00,,,0.00,0.000000,,2013-03-15 10:33:00,
2013-03-15 06:43:00,34.0,20.0,-100.00,South,183,0.0,0.0,56,0.00,,,0.00,0.000000,,2013-03-15 10:43:00,
2013-03-15 06:52:00,34.0,20.0,-100.00,South,183,0.0,0.0,56,0.00,,,0.00,0.000000,,2013-03-15 10:52:00,
2013-03-15 07:03:00,34.0,20.0,-100.00,South,183,0.0,0.0,56,0.00,,,0.00,0.000000,,2013-03-15 11:03:00,
2013-03-15 07:12:00,35.0,21.0,-100.00,South,173,0.0,3.0,57,0.00,,,0.00,0.000000,,2013-03-15 11:12:00,
2013-03-15 07:33:00,35.0,21.0,-100.00,South,173,0.0,3.0,57,0.00,,,0.00,0.000000,,2013-03-15 11:33:00,
2013-03-15 07:42:00,35.0,21.0,-100.00,South,173,0.0,3.0,57,0.00,,,0.00,0.000000,,2013-03-15 11:42:00,
2013-03-15 07:52:00,35.0,21.0,-100.00,South,173,0.0,3.0,57,0.00,,,0.00,0.000000,,2013-03-15 11:52:00,
2013-03-15 08:02:00,35.0,21.0,-100.00,South,173,0.0,3.0,57,0.00,,,0.00,0.000000,,2013-03-15 12:02:00,
2013-03-15 08:12:00,36.0,23.0,-100.00,ESE,110,0.0,2.0,58,0.00,,,0.00,7.000000,,2013-03-15 12:12:00,
2013-03-15 08:32:00,36.0,23.0,-100.00,ESE,110,0.0,2.0,58,0.00,,,0.00,7.000000,,2013-03-15 12:32:00,
2013-03-15 08:42:00,36.0,23.0,-100.00,ESE,110,0.0,2.0,58,0.00,,,0.00,7.000000,,2013-03-15 12:42:00,
2013-03-15 08:52:00,36.0,23.0,-100.00,ESE,110,0.0,2.0,58,0.00,,,0.00,7.000000,,2013-03-15 12:52:00,
2013-03-15 09:02:00,36.0,23.0,-100.00,ESE,110,0.0,2.0,58,0.00,,,0.00,7.000000,,2013-03-15 13:02:00,
2013-03-15 09:12:00,43.0,25.0,-100.00,SE,142,2.0,4.0,49,0.00,,,0.00,118.000000,,2013-03-15 13:12:00,
2013-03-15 09:42:00,43.0,25.0,-100.00,SE,142,2.0,4.0,49,0.00,,,0.00,118.000000,,2013-03-15 13:42:00,
2013-03-15 09:53:00,43.0,25.0,-100.00,SE,142,2.0,4.0,49,0.00,,,0.00,118.000000,,2013-03-15 13:53:00,
2013-03-15 10:02:00,43.0,25.0,-100.00,SE,142,2.0,4.0,49,0.00,,,0.00,118.000000,,2013-03-15 14:02:00,
2013-03-15 10:12:00,49.0,27.0,-100.00,SSE,157,3.0,6.0,43,0.00,,,0.00,174.000000,,2013-03-15 14:12:00,
2013-03-15 10:33:00,49.0,27.0,-100.00,SSE,157,3.0,6.0,43,0.00,,,0.00,174.000000,,2013-03-15 14:33:00,
2013-03-15 10:42:00,49.0,27.0,-100.00,SSE,157,3.0,6.0,43,0.00,,,0.00,174.000000,,2013-03-15 14:42:00,
2013-03-15 10:53:00,49.0,27.0,-100.00,SSE,157,3.0,6.0,43,0.00,,,0.00,174.000000,,2013-03-15 14:53:00,
2013-03-15 11:02:00,49.0,27.0,-100.00,SSE,157,3.0,6.0,43,0.00,,,0.00,174.000000,,2013-03-15 15:02:00,
2013-03-15 11:12:00,55.0,31.0,-100.00,SSW,192,2.0,7.0,40,0.00,,,0.00,544.000000,,2013-03-15 15:12:00,
2013-03-15 11:33:00,55.0,31.0,-100.00,SSW,192,2.0,7.0,40,0.00,,,0.00,544.000000,,2013-03-15 15:33:00,
2013-03-15 11:43:00,55.0,31.0,-100.00,SSW,192,2.0,7.0,40,0.00,,,0.00,544.000000,,2013-03-15 15:43:00,
2013-03-15 11:53:00,55.0,31.0,-100.00,SSW,192,2.0,7.0,40,0.00,,,0.00,544.000000,,2013-03-15 15:53:00,
2013-03-15 12:03:00,55.0,31.0,-100.00,SSW,192,2.0,7.0,40,0.00,,,0.00,544.000000,,2013-03-15 16:03:00,
2013-03-15 12:12:00,62.0,29.0,-100.00,West,260,3.0,8.0,29,0.00,,,0.00,732.000000,,2013-03-15 16:12:00,
2013-03-15 12:32:00,62.0,29.0,-100.00,West,260,3.0,8.0,29,0.00,,,0.00,732.000000,,2013-03-15 16:32:00,
2013-03-15 12:42:00,62.0,29.0,-100.00,West,260,3.0,8.0,29,0.00,,,0.00,732.000000,,2013-03-15 16:42:00,
2013-03-15 12:53:00,62.0,29.0,-100.00,West,260,3.0,8.0,29,0.00,,,0.00,732.000000,,2013-03-15 16:53:00,
2013-03-15 13:02:00,62.0,29.0,-100.00,West,260,3.0,8.0,29,0.00,,,0.00,732.000000,,2013-03-15 17:02:00,
2013-03-15 13:12:00,64.0,31.0,-100.00,SW,228,4.0,11.0,29,0.00,,,0.00,847.000000,,2013-03-15 17:12:00,
2013-03-15 13:33:00,64.0,31.0,-100.00,SW,228,4.0,11.0,29,0.00,,,0.00,847.000000,,2013-03-15 17:33:00,
2013-03-15 13:43:00,64.0,31.0,-100.00,SW,228,4.0,11.0,29,0.00,,,0.00,847.000000,,2013-03-15 17:43:00,
2013-03-15 13:53:00,64.0,31.0,-100.00,SW,228,4.0,11.0,29,0.00,,,0.00,847.000000,,2013-03-15 17:53:00,
2013-03-15 14:03:00,64.0,31.0,-100.00,SW,228,4.0,11.0,29,0.00,,,0.00,847.000000,,2013-03-15 18:03:00,
2013-03-15 14:12:00,67.0,32.0,-100.00,SSW,209,3.0,12.0,27,0.00,,,0.00,891.000000,,2013-03-15 18:12:00,
2013-03-15 14:42:00,67.0,32.0,-100.00,SSW,209,3.0,12.0,27,0.00,,,0.00,891.000000,,2013-03-15 18:42:00,
2013-03-15 14:53:00,67.0,32.0,-100.00,SSW,209,3.0,12.0,27,0.00,,,0.00,891.000000,,2013-03-15 18:53:00,
2013-03-15 15:02:00,67.0,32.0,-100.00,SSW,209,3.0,12.0,27,0.00,,,0.00,891.000000,,2013-03-15 19:02:00,
2013-03-15 15:12:00,72.0,35.0,-100.00,WSW,258,2.0,11.0,26,0.00,,,-99.99,860.000000,,2013-03-15 19:12:00,
2013-03-15 15:42:00,72.0,35.0,-100.00,WSW,258,2.0,11.0,26,0.00,,,-99.99,860.000000,,2013-03-15 19:42:00,
2013-03-15 15:53:00,72.0,35.0,-100.00,WSW,258,2.0,11.0,26,0.00,,,-99.99,860.000000,,2013-03-15 19:53:00,
2013-03-15 16:03:00,72.0,35.0,-100.00,WSW,258,2.0,11.0,26,0.00,,,-99.99,860.000000,,2013-03-15 20:03:00,
2013-03-15 16:12:00,72.0,35.0,-100.00,SW,227,5.0,13.0,26,0.00,,,0.00,741.000000,,2013-03-15 20:12:00,
2013-03-15 16:42:00,72.0,35.0,-100.00,SW,227,5.0,13.0,26,0.00,,,0.00,741.000000,,2013-03-15 20:42:00,
2013-03-15 16:52:00,72.0,35.0,-100.00,SW,227,5.0,13.0,26,0.00,,,0.00,741.000000,,2013-03-15 20:52:00,
2013-03-15 17:02:00,72.0,35.0,-100.00,SW,227,5.0,13.0,26,0.00,,,0.00,741.000000,,2013-03-15 21:02:00,
2013-03-15 17:12:00,72.0,35.0,-100.00,SW,236,5.0,14.0,26,0.00,,,0.00,521.000000,,2013-03-15 21:12:00,
2013-03-15 17:43:00,72.0,35.0,-100.00,SW,236,5.0,14.0,26,0.00,,,0.00,521.000000,,2013-03-15 21:43:00,
2013-03-15 17:53:00,72.0,35.0,-100.00,SW,236,5.0,14.0,26,0.00,,,0.00,521.000000,,2013-03-15 21:53:00,
2013-03-15 18:04:00,72.0,35.0,-100.00,SW,236,5.0,14.0,26,0.00,,,0.00,521.000000,,2013-03-15 22:04:00,
2013-03-15 18:12:00,71.0,35.0,-100.00,SW,227,4.0,15.0,27,0.00,,,0.00,110.000000,,2013-03-15 22:12:00,
2013-03-15 18:33:00,71.0,35.0,-100.00,SW,227,4.0,15.0,27,0.00,,,0.00,110.000000,,2013-03-15 22:33:00,
2013-03-15 18:42:00,71.0,35.0,-100.00,SW,227,4.0,15.0,27,0.00,,,0.00,110.000000,,2013-03-15 22:42:00,
2013-03-15 18:53:00,71.0,35.0,-100.00,SW,227,4.0,15.0,27,0.00,,,0.00,110.000000,,2013-03-15 22:53:00,
2013-03-15 19:03:00,71.0,35.0,-100.00,SW,227,4.0,15.0,27,0.00,,,0.00,110.000000,,2013-03-15 23:03:00,
2013-03-15 19:12:00,69.0,36.0,-100.00,SW,217,3.0,11.0,30,0.00,,,0.00,59.000000,,2013-03-15 23:12:00,
2013-03-15 19:42:00,69.0,36.0,-100.00,SW,217,3.0,11.0,30,0.00,,,0.00,59.000000,,2013-03-15 23:42:00,
2013-03-15 19:53:00,69.0,36.0,-100.00,SW,217,3.0,11.0,30,0.00,,,0.00,59.000000,,2013-03-15 23:53:00,
2013-03-15 20:03:00,69.0,36.0,-100.00,SW,217,3.0,11.0,30,0.00,,,0.00,59.000000,,2013-03-16 00:03:00,
2013-03-15 21:12:00,63.0,38.0,-100.00,South,183,3.0,5.0,39,-99.99,,,0.00,0.000000,,2013-03-16 01:12:00,
2013-03-15 21:32:00,63.0,38.0,-100.00,South,183,3.0,5.0,39,-99.99,,,0.00,0.000000,,2013-03-16 01:32:00,
2013-03-15 21:42:00,63.0,38.0,-100.00,South,183,3.0,5.0,39,-99.99,,,0.00,0.000000,,2013-03-16 01:42:00,
2013-03-15 21:53:00,63.0,38.0,-100.00,South,183,3.0,5.0,39,-99.99,,,0.00,0.000000,,2013-03-16 01:53:00,
2013-03-15 22:02:00,63.0,38.0,-100.00,South,183,3.0,5.0,39,-99.99,,,0.00,0.000000,,2013-03-16 02:02:00,
2013-03-15 22:12:00,63.0,38.0,-100.00,SSW,204,5.0,9.0,40,0.00,,,0.00,0.000000,,2013-03-16 02:12:00,
2013-03-15 22:43:00,63.0,38.0,-100.00,SSW,204,5.0,9.0,40,0.00,,,0.00,0.000000,,2013-03-16 02:43:00,
2013-03-15 22:52:00,63.0,38.0,-100.00,SSW,204,5.0,9.0,40,0.00,,,0.00,0.000000,,2013-03-16 02:52:00,
2013-03-15 23:02:00,63.0,38.0,-100.00,SSW,204,5.0,9.0,40,0.00,,,0.00,0.000000,,2013-03-16 03:02:00,
2013-03-15 23:12:00,62.0,38.0,-100.00,SSW,210,5.0,12.0,41,0.00,,,0.00,0.000000,,2013-03-16 03:12:00,
2013-03-15 23:43:00,62.0,38.0,-100.00,SSW,210,5.0,12.0,41,0.00,,,0.00,0.000000,,2013-03-16 03:43:00,
2013-03-15 23:53:00,62.0,38.0,-100.00,SSW,210,5.0,12.0,41,0.00,,,0.00,0.000000,,2013-03-16 03:53:00,